TimeCDT,TemperatureF,Dew PointF,Humidity,Sea Level PressureIn,VisibilityMPH,Wind Direction,Wind SpeedMPH,Gust SpeedMPH,PrecipitationIn,Events,Conditions,WindDirDegrees,DateUTC
12:15 AM,69.8,60.8,73,30.09,10.0,WNW,4.6,-,N/A,,Clear,290,2012-10-12 05:15:00
12:35 AM,69.8,60.8,73,30.10,10.0,Calm,Calm,-,N/A,,Scattered Clouds,0,2012-10-12 05:35:00
12:55 AM,68.0,60.8,78,30.10,10.0,NNW,3.5,-,N/A,,Clear,330,2012-10-12 05:55:00
1:15 AM,68.0,60.8,78,30.10,10.0,Calm,Calm,-,N/A,,Clear,0,2012-10-12 06:15:00
1:35 AM,69.8,60.8,73,30.09,10.0,South,4.6,-,N/A,,Clear,180,2012-10-12 06:35:00
1:55 AM,68.0,60.8,78,30.08,10.0,South,4.6,-,N/A,,Clear,170,2012-10-12 06:55:00
2:15 AM,68.0,60.8,78,30.07,10.0,SSW,4.6,-,N/A,,Clear,200,2012-10-12 07:15:00
2:35 AM,68.0,60.8,78,30.07,10.0,SSW,8.1,-,N/A,,Clear,200,2012-10-12 07:35:00
2:55 AM,68.0,62.6,83,30.08,10.0,SW,6.9,-,N/A,,Clear,230,2012-10-12 07:55:00
3:35 AM,66.2,60.8,83,30.09,10.0,Calm,Calm,-,N/A,,Clear,0,2012-10-12 08:35:00
3:55 AM,64.4,60.8,88,30.09,10.0,NNW,5.8,-,N/A,,Clear,340,2012-10-12 08:55:00
4:15 AM,64.4,60.8,88,30.10,10.0,WNW,6.9,-,N/A,,Scattered Clouds,290,2012-10-12 09:15:00
4:35 AM,62.6,55.4,77,30.11,10.0,NNW,12.7,-,N/A,,Overcast,330,2012-10-12 09:35:00
4:55 AM,59.0,48.2,67,30.12,10.0,North,15.0,21.9,N/A,,Overcast,360,2012-10-12 09:55:00
5:15 AM,59.0,44.6,59,30.13,10.0,North,13.8,18.4,N/A,,Overcast,360,2012-10-12 10:15:00
5:35 AM,55.4,41.0,58,30.16,10.0,North,15.0,19.6,N/A,,Overcast,360,2012-10-12 10:35:00
5:55 AM,53.6,37.4,54,30.17,10.0,North,13.8,-,N/A,,Overcast,360,2012-10-12 10:55:00
6:15 AM,53.6,37.4,54,30.17,10.0,North,15.0,18.4,N/A,,Overcast,360,2012-10-12 11:15:00
6:35 AM,51.8,37.4,58,30.18,10.0,North,15.0,18.4,N/A,,Overcast,360,2012-10-12 11:35:00
6:55 AM,51.8,35.6,54,30.19,10.0,North,12.7,-,N/A,,Overcast,360,2012-10-12 11:55:00
7:15 AM,51.8,35.6,54,30.19,10.0,North,11.5,-,N/A,,Overcast,360,2012-10-12 12:15:00
7:35 AM,51.8,35.6,54,30.21,10.0,North,10.4,-,N/A,,Overcast,360,2012-10-12 12:35:00
7:55 AM,50.0,35.6,58,30.20,10.0,North,9.2,-,N/A,,Overcast,10,2012-10-12 12:55:00
8:15 AM,50.0,35.6,58,30.21,10.0,North,9.2,-,N/A,,Overcast,360,2012-10-12 13:15:00
8:35 AM,50.0,35.6,58,30.21,10.0,North,12.7,17.3,N/A,,Overcast,360,2012-10-12 13:35:00
8:55 AM,50.0,35.6,58,30.22,10.0,North,10.4,-,N/A,,Overcast,350,2012-10-12 13:55:00
9:15 AM,50.0,35.6,58,30.23,10.0,North,11.5,-,N/A,,Overcast,350,2012-10-12 14:15:00
9:35 AM,50.0,35.6,58,30.24,10.0,North,6.9,-,N/A,,Overcast,350,2012-10-12 14:35:00
9:55 AM,50.0,35.6,58,30.25,10.0,North,5.8,-,N/A,,Overcast,360,2012-10-12 14:55:00
10:15 AM,50.0,35.6,58,30.25,10.0,North,6.9,-,N/A,,Overcast,350,2012-10-12 15:15:00
10:35 AM,50.0,37.4,62,30.27,10.0,WNW,5.8,-,N/A,Rain,Light Rain,300,2012-10-12 15:35:00
11:15 AM,51.8,37.4,58,30.25,10.0,North,4.6,-,N/A,,Overcast,350,2012-10-12 16:15:00
11:35 AM,51.8,37.4,58,30.22,10.0,NNE,6.9,-,N/A,,Mostly Cloudy,20,2012-10-12 16:35:00
11:55 AM,50.0,37.4,62,30.23,10.0,North,4.6,-,N/A,,Mostly Cloudy,350,2012-10-12 16:55:00
12:35 PM,50.0,41.0,71,30.19,10.0,North,9.2,-,N/A,Rain,Light Rain,10,2012-10-12 17:35:00
12:55 PM,51.8,41.0,67,30.19,10.0,ESE,11.5,-,N/A,,Scattered Clouds,110,2012-10-12 17:55:00
1:15 PM,51.8,41.0,67,30.14,10.0,NE,10.4,-,N/A,,Scattered Clouds,40,2012-10-12 18:15:00
1:35 PM,55.4,41.0,58,30.14,10.0,NE,9.2,-,N/A,,Mostly Cloudy,40,2012-10-12 18:35:00
1:55 PM,53.6,41.0,62,30.18,10.0,Calm,Calm,-,N/A,,Mostly Cloudy,0,2012-10-12 18:55:00
2:15 PM,53.6,41.0,62,30.17,10.0,ENE,3.5,-,N/A,,Mostly Cloudy,60,2012-10-12 19:15:00
2:35 PM,53.6,44.6,72,30.15,10.0,NE,5.8,-,N/A,Rain,Light Rain,50,2012-10-12 19:35:00
2:55 PM,53.6,42.8,67,30.16,10.0,Calm,Calm,-,N/A,,Mostly Cloudy,0,2012-10-12 19:55:00
3:15 PM,55.4,42.8,63,30.16,10.0,Calm,Calm,-,N/A,Rain,Light Rain,0,2012-10-12 20:15:00
3:35 PM,55.4,42.8,63,30.13,10.0,NNE,5.8,-,N/A,,Overcast,30,2012-10-12 20:35:00
4:15 PM,59.0,44.6,59,30.11,10.0,Calm,Calm,-,N/A,,Scattered Clouds,0,2012-10-12 21:15:00
4:35 PM,59.0,44.6,59,30.12,10.0,Calm,Calm,-,N/A,,Mostly Cloudy,0,2012-10-12 21:35:00
5:15 PM,60.8,46.4,59,30.09,10.0,ESE,6.9,-,N/A,,Overcast,110,2012-10-12 22:15:00
5:55 PM,60.8,46.4,59,30.07,10.0,ESE,3.5,-,N/A,,Mostly Cloudy,110,2012-10-12 22:55:00
6:35 PM,60.8,46.4,59,30.06,10.0,East,5.8,-,N/A,,Overcast,80,2012-10-12 23:35:00
7:35 PM,60.8,48.2,63,30.02,10.0,ENE,5.8,-,N/A,,Overcast,70,2012-10-13 00:35:00
7:55 PM,60.8,50.0,68,30.01,10.0,ESE,9.2,-,N/A,,Mostly Cloudy,110,2012-10-13 00:55:00
8:15 PM,60.8,50.0,68,30.01,10.0,ESE,8.1,-,N/A,,Scattered Clouds,120,2012-10-13 01:15:00
8:35 PM,60.8,50.0,68,30.01,10.0,ESE,9.2,-,N/A,,Clear,110,2012-10-13 01:35:00
8:55 PM,60.8,51.8,72,30.03,10.0,SE,8.1,-,N/A,,Scattered Clouds,130,2012-10-13 01:55:00
9:15 PM,60.8,51.8,72,30.01,10.0,ESE,11.5,-,N/A,,Scattered Clouds,120,2012-10-13 02:15:00
9:35 PM,60.8,55.4,82,30.01,10.0,ESE,12.7,17.3,N/A,,Scattered Clouds,120,2012-10-13 02:35:00
9:55 PM,60.8,55.4,82,30.02,10.0,ESE,10.4,-,N/A,,Mostly Cloudy,120,2012-10-13 02:55:00
10:15 PM,59.0,55.4,88,30.01,10.0,ESE,5.8,-,N/A,Rain,Light Rain,110,2012-10-13 03:15:00
10:35 PM,59.0,55.4,88,30.03,10.0,Calm,Calm,-,N/A,,Mostly Cloudy,0,2012-10-13 03:35:00
10:55 PM,59.0,55.4,88,30.01,10.0,Calm,Calm,-,N/A,,Scattered Clouds,0,2012-10-13 03:55:00
11:15 PM,62.6,60.8,94,29.99,10.0,South,15.0,18.4,N/A,,Clear,170,2012-10-13 04:15:00
11:35 PM,62.6,60.8,94,29.95,10.0,SSE,25.3,31.1,N/A,,Clear,160,2012-10-13 04:35:00